sat.trackr.live / text

‹ back to catalog

UNKNOWN

NORAD 81536

UNKNOWN UNKNOWN UNKNOWN

§ Identity

Operator
Country
Launch date
Launch site
Launch vehicle
Mass (kg)
RCS (m²)

External: N2YO · Heavens-Above

§ Orbital elements

Epoch: 2026-05-24T02:17:24.421056Z

Period
114.64 min
Inclination
101.9667°
Eccentricity
0.0029567
Mean motion
12.56071010 rev/d
Perigee alt
1,416.1 km
Apogee alt
1,462.3 km
Semi-major
7,817.3 km
B*
2.6734e-3
RAAN
12.1566°
Arg perigee
346.9208°
Mean anomaly
168.6490°
Rev number
57,219

§ Raw data

UNKNOWN1 81536U          26144.09542154  .00000395  00000+0  26734-2 0  99902 81536 101.9667  12.1566 0029567 346.9208 168.6490 12.56071010572198

JSON: /api/v1/satellites/81536 · /tle

For live sub-satellite position, see the globe view (requires WebGL).

§ Visibility from observer

Set your observer location to see the next 7 days of passes ≥ 10°. The values pass through the URL so the page stays shareable.

No JS? Fill the form by hand. The geolocation button needs JavaScript.